SCP
0 -0 0 -0 0 -0 0 -0 0 0 0 -0 0 -0 0 0 0 0 0 0 0 0 -0 -0 -1 -1 -0 -1 -0 -0 -0 0
0 0 0 0 0 -0 0 0 0 0 0 0 0 0 0 0 0 0 0 0 0 0 -0 -0 -0 -1 -0 -0 -1 -0 -0 -0
0 0 -0 0 0 0 0 0 0 0 0 0 0 -0 -0 0 0 0 0 0 0 -0 -0 -0 -0 -1 -1 -1 -1 -1 -0 -0
0 0 0 0 0 0 0 -0 0 0 0 -0 -0 -0 -0 -0 0 0 0 0 0 0 -0 -0 -0 -0 -1 -1 -1 -0 -0 -0
0 0 0 0 -0 -0 -0 -0 0 0 0 -0 -0 -0 -0 0 0 0 0 0 0 0 0 0 -0 -0 -0 -0 -0 -0 -0 -0
0 0 0 0 0 0 0 0 0 0 0 0 0 -0 0 0 0 0 0 0 0 -0 -0 -0 -0 -0 0 0 0 0 -0 -0
0 0 0 0 0 0 0 0 0 0 0 0 -0 0 0 0 0 0 0 0 -0 0 -0 -0 0 -0 -0 -0 0 0 0 0
0 0 0 0 0 0 0 0 0 0 0 0 -0 0 0 -0 0 0 0 0 0 0 0 -0 -0 0 -0 0 0 1 1 0
0 0 0 0 0 0 0 0 0 0 -0 0 0 0 0 0 0 0 0 0 0 0 0 0 -0 0 -0 0 1 2 2 1
0 0 0 0 0 0 0 0 0 0 0 0 0 0 0 0 0 0 0 0 0 0 0 0 0 -0 -0 -0 1 2 2 1
0 0 0 0 0 0 0 0 0 0 0 0 0 0 0 0 0 0 0 0 0 0 0 0 0 -0 -0 -0 1 1 1 1
0 0 0 0 0 0 0 0 0 0 0 0 0 0 0 0 0 0 0 0 0 0 0 0 0 -1 -0 0 0 0 0 0
0 0 0 0 0 0 0 0 0 0 0 1 1 1 1 1 0 0 0 0 0 0 0 1 0 -0 -0 0 0 0 0 0
0 0 0 0 0 0 0 0 0 0 0 0 1 1 1 1 1 0 0 0 0 0 1 1 0 1 0 0 1 0 0 -0
0 0 0 0 0 0 0 0 0 0 0 0 0 1 1 1 1 1 0 0 1 1 1 1 1 1 0 0 1 0 0 -0
0 0 0 0 0 0 0 0 0 0 0 0 0 0 0 0 1 1 1 1 1 1 1 1 1 0 0 0 0 0 0 0
0 0 0 0 0 0 0 0 0 0 0 0 0 0 0 0 0 0 1 1 1 1 1 1 0 0 0 0 0 0 0 0
0 0 0 0 0 0 0 0 0 0 0 0 0 0 0 0 0 0 0 1 1 2 2 3 1 0 1 0 1 1 1 0
0 0 0 0 0 0 0 0 0 0 0 0 0 0 0 0 0 0 0 0 1 1 2 3 4 2 1 1 1 1 1 1
Wind_Speed_500mb
31 35 42 37 36 33 28 37 16 10 14 42 12 15 9 8 4 12 7 16 27 42 52 58 59 64 64 57 53 52 49 45
37 30 38 24 21 23 16 20 23 12 16 4 24 12 8 8 16 12 15 18 29 38 49 57 55 61 61 58 54 51 48 43
31 34 35 26 26 26 3 20 6 26 4 9 6 8 15 13 13 18 16 23 29 40 46 52 53 59 59 58 53 50 50 46
43 32 30 41 38 38 26 33 20 25 12 34 15 10 17 20 17 12 5 17 27 34 43 50 54 56 55 55 54 52 49 49
31 35 36 33 43 45 44 39 35 17 4 51 36 16 13 27 26 6 5 12 24 33 41 47 52 53 55 54 53 50 48 46
27 33 34 36 34 38 43 28 26 24 32 5 11 9 14 24 12 18 4 12 22 32 40 46 50 52 53 52 52 50 50 48
38 34 18 25 36 35 38 39 38 35 28 17 33 9 17 20 12 13 7 10 19 26 33 41 48 52 54 51 51 51 52 48
33 35 30 35 33 28 36 35 35 37 40 16 83 21 10 24 22 27 11 9 17 23 31 45 50 53 56 55 53 52 52 46
23 30 35 36 36 29 30 31 31 32 34 31 29 18 17 20 31 26 29 31 20 28 33 43 52 55 60 55 50 52 52 44
20 14 26 20 25 31 28 27 24 26 22 26 28 23 23 31 27 25 25 30 23 27 34 41 47 50 49 49 53 53 51 46
20 18 13 16 10 11 12 23 31 29 27 32 35 24 29 28 27 28 33 37 29 26 32 39 46 50 53 51 55 55 51 53
16 21 24 27 15 13 11 11 32 29 23 27 28 20 12 46 38 36 35 30 25 21 28 36 44 49 54 59 58 59 55 54
20 20 4 15 12 6 16 12 27 27 25 25 19 25 38 42 41 30 29 26 19 19 27 36 42 52 58 60 57 53 48 49
25 29 26 29 9 10 10 17 23 27 28 30 29 28 30 34 36 33 26 25 19 15 20 30 41 54 59 62 51 54 52 49
14 11 19 32 34 24 21 22 24 26 31 32 33 33 34 35 35 35 27 23 20 13 15 27 39 48 51 52 50 54 53 50
1 17 17 22 26 25 21 22 25 27 29 33 36 35 36 35 36 35 30 24 21 15 14 23 32 44 43 40 43 48 52 52
5 25 9 9 20 25 19 23 29 30 30 33 34 35 35 35 34 34 32 27 20 17 15 20 29 37 40 38 41 44 45 47
13 20 16 17 21 23 24 31 34 35 36 34 34 33 33 31 30 31 30 31 23 12 14 11 22 29 36 38 43 45 45 45
16 20 26 27 21 26 32 36 39 41 40 41 37 33 30 29 27 27 25 27 25 18 11 11 13 25 31 40 45 50 52 49
Wind_Direction_500mb
202 220 230 204 216 261 286 231 255 334 47 302 137 160 89 48 133 159 209 213 205 200 204 202 199 205 204 204 206 207 209 212
196 201 241 252 272 231 230 273 282 261 270 131 207 87 24 3 350 160 159 208 200 200 199 201 207 206 203 206 207 207 207 211
182 214 225 202 247 258 202 273 293 256 98 119 321 202 38 334 356 337 151 190 204 199 198 200 201 200 202 202 205 205 207 210
203 214 219 251 211 236 248 234 259 286 229 201 179 32 24 358 27 357 318 190 198 203 200 199 199 201 202 201 204 205 206 205
221 197 209 228 237 237 228 246 255 219 231 282 341 24 340 40 2 341 262 212 199 198 202 203 201 203 202 202 202 205 203 206
239 223 190 209 244 258 270 269 263 258 280 30 281 278 5 17 25 8 180 230 227 209 205 204 204 202 204 204 203 202 204 207
236 270 249 239 206 225 246 260 262 270 282 336 308 20 5 338 355 32 343 267 227 232 211 205 204 201 201 204 202 201 202 206
240 251 240 248 246 242 220 240 263 281 285 227 229 307 337 283 345 334 2 292 254 233 222 202 204 201 200 198 202 199 202 204
234 243 248 234 240 231 238 239 242 245 253 273 284 279 300 316 306 328 355 318 282 232 224 213 203 200 200 194 197 196 199 198
250 276 241 233 238 213 250 264 273 275 280 287 282 312 334 322 2 352 325 321 285 245 222 213 205 203 196 193 191 193 196 195
237 236 247 169 58 346 312 63 23 356 354 343 343 342 287 33 358 338 318 310 283 243 224 209 203 197 191 189 189 190 193 195
240 268 262 72 36 7 311 174 10 3 4 345 329 276 309 354 353 343 333 317 293 241 216 207 201 194 189 188 189 194 194 196
235 258 178 32 14 312 242 45 6 4 357 344 337 332 322 339 343 333 331 319 295 247 228 204 200 193 189 188 194 195 195 196
244 253 241 352 61 359 51 51 19 10 4 352 336 337 342 343 345 338 325 324 309 271 229 198 195 196 193 192 194 193 198 197
18 53 87 59 75 62 39 46 20 11 4 355 349 346 350 348 353 350 340 326 312 282 232 204 199 199 198 198 196 194 197 195
260 119 96 84 62 40 32 22 7 1 353 352 352 349 351 350 354 357 353 335 322 289 224 213 206 204 203 199 196 197 198 198
249 68 315 142 44 9 355 354 348 346 344 342 343 347 348 347 353 357 355 347 328 298 272 222 216 210 203 199 197 199 206 205
34 32 349 359 338 338 345 335 331 329 329 331 330 330 339 341 346 352 355 352 347 328 285 260 222 214 204 203 205 200 206 212
348 342 324 308 324 323 322 322 320 318 315 314 314 312 315 326 334 342 349 351 355 342 301 279 239 209 205 199 203 205 204 200
Wind_Speed_850mb
31 35 42 37 36 33 28 37 16 10 14 42 12 15 9 8 4 12 7 16 27 42 52 58 59 64 64 57 53 52 49 45
37 30 38 24 21 23 16 20 23 12 16 4 24 12 8 8 16 12 15 18 29 38 49 57 55 61 61 58 54 51 48 43
31 34 35 26 26 26 3 20 6 26 4 9 6 8 15 13 13 18 16 23 29 40 46 52 53 59 59 58 53 50 50 46
43 32 30 41 38 38 26 33 20 25 12 34 15 10 17 20 17 12 5 17 27 34 43 50 54 56 55 55 54 52 49 49
31 35 36 33 43 45 44 39 35 17 4 51 36 16 13 27 26 6 5 12 24 33 41 47 52 53 55 54 53 50 48 46
27 33 34 36 34 38 43 28 26 24 32 5 11 9 14 24 12 18 4 12 22 32 40 46 50 52 53 52 52 50 50 48
38 34 18 25 36 35 38 39 38 35 28 17 33 9 17 20 12 13 7 10 19 26 33 41 48 52 54 51 51 51 52 48
33 35 30 35 33 28 36 35 35 37 40 16 83 21 10 24 22 27 11 9 17 23 31 45 50 53 56 55 53 52 52 46
23 30 35 36 36 29 30 31 31 32 34 31 29 18 17 20 31 26 29 31 20 28 33 43 52 55 60 55 50 52 52 44
20 14 26 20 25 31 28 27 24 26 22 26 28 23 23 31 27 25 25 30 23 27 34 41 47 50 49 49 53 53 51 46
20 18 13 16 10 11 12 23 31 29 27 32 35 24 29 28 27 28 33 37 29 26 32 39 46 50 53 51 55 55 51 53
16 21 24 27 15 13 11 11 32 29 23 27 28 20 12 46 38 36 35 30 25 21 28 36 44 49 54 59 58 59 55 54
20 20 4 15 12 6 16 12 27 27 25 25 19 25 38 42 41 30 29 26 19 19 27 36 42 52 58 60 57 53 48 49
25 29 26 29 9 10 10 17 23 27 28 30 29 28 30 34 36 33 26 25 19 15 20 30 41 54 59 62 51 54 52 49
14 11 19 32 34 24 21 22 24 26 31 32 33 33 34 35 35 35 27 23 20 13 15 27 39 48 51 52 50 54 53 50
1 17 17 22 26 25 21 22 25 27 29 33 36 35 36 35 36 35 30 24 21 15 14 23 32 44 43 40 43 48 52 52
5 25 9 9 20 25 19 23 29 30 30 33 34 35 35 35 34 34 32 27 20 17 15 20 29 37 40 38 41 44 45 47
13 20 16 17 21 23 24 31 34 35 36 34 34 33 33 31 30 31 30 31 23 12 14 11 22 29 36 38 43 45 45 45
16 20 26 27 21 26 32 36 39 41 40 41 37 33 30 29 27 27 25 27 25 18 11 11 13 25 31 40 45 50 52 49
Wind_Direction_850mb
202 220 230 204 216 261 286 231 255 334 47 302 137 160 89 48 133 159 209 213 205 200 204 202 199 205 204 204 206 207 209 212
196 201 241 252 272 231 230 273 282 261 270 131 207 87 24 3 350 160 159 208 200 200 199 201 207 206 203 206 207 207 207 211
182 214 225 202 247 258 202 273 293 256 98 119 321 202 38 334 356 337 151 190 204 199 198 200 201 200 202 202 205 205 207 210
203 214 219 251 211 236 248 234 259 286 229 201 179 32 24 358 27 357 318 190 198 203 200 199 199 201 202 201 204 205 206 205
221 197 209 228 237 237 228 246 255 219 231 282 341 24 340 40 2 341 262 212 199 198 202 203 201 203 202 202 202 205 203 206
239 223 190 209 244 258 270 269 263 258 280 30 281 278 5 17 25 8 180 230 227 209 205 204 204 202 204 204 203 202 204 207
236 270 249 239 206 225 246 260 262 270 282 336 308 20 5 338 355 32 343 267 227 232 211 205 204 201 201 204 202 201 202 206
240 251 240 248 246 242 220 240 263 281 285 227 229 307 337 283 345 334 2 292 254 233 222 202 204 201 200 198 202 199 202 204
234 243 248 234 240 231 238 239 242 245 253 273 284 279 300 316 306 328 355 318 282 232 224 213 203 200 200 194 197 196 199 198
250 276 241 233 238 213 250 264 273 275 280 287 282 312 334 322 2 352 325 321 285 245 222 213 205 203 196 193 191 193 196 195
237 236 247 169 58 346 312 63 23 356 354 343 343 342 287 33 358 338 318 310 283 243 224 209 203 197 191 189 189 190 193 195
240 268 262 72 36 7 311 174 10 3 4 345 329 276 309 354 353 343 333 317 293 241 216 207 201 194 189 188 189 194 194 196
235 258 178 32 14 312 242 45 6 4 357 344 337 332 322 339 343 333 331 319 295 247 228 204 200 193 189 188 194 195 195 196
244 253 241 352 61 359 51 51 19 10 4 352 336 337 342 343 345 338 325 324 309 271 229 198 195 196 193 192 194 193 198 197
18 53 87 59 75 62 39 46 20 11 4 355 349 346 350 348 353 350 340 326 312 282 232 204 199 199 198 198 196 194 197 195
260 119 96 84 62 40 32 22 7 1 353 352 352 349 351 350 354 357 353 335 322 289 224 213 206 204 203 199 196 197 198 198
249 68 315 142 44 9 355 354 348 346 344 342 343 347 348 347 353 357 355 347 328 298 272 222 216 210 203 199 197 199 206 205
34 32 349 359 338 338 345 335 331 329 329 331 330 330 339 341 346 352 355 352 347 328 285 260 222 214 204 203 205 200 206 212
348 342 324 308 324 323 322 322 320 318 315 314 314 312 315 326 334 342 349 351 355 342 301 279 239 209 205 199 203 205 204 200